Theta_e
322 321 321 323 321 320 322 322 323 327 330 331 328 326 330 331 330 334 334 333 337 342 345 348 349 350 351 351 351 353 354 354 354 354 354 353 352 351 349 348 347 346 348 350 349 350 350 348 347 348 347 344 341 341 342 341 342 343 341 340 340 342 342
322 323 321 322 323 322 321 318 321 329 332 333 331 327 328 329 328 329 330 331 332 333 339 349 350 350 351 351 351 354 355 354 354 353 353 353 352 351 350 348 348 348 350 350 349 349 349 348 346 345 342 340 341 341 341 342 342 342 343 342 341 341 341
321 323 322 320 321 323 322 321 323 327 326 326 328 327 327 328 327 327 329 331 328 327 337 347 349 350 352 350 350 352 354 355 354 353 353 353 353 352 351 348 348 349 350 350 349 348 349 347 345 344 343 343 343 342 342 344 344 343 343 345 344 342 341
322 322 321 318 319 322 324 324 324 324 325 325 326 326 326 326 325 326 328 329 327 330 342 348 348 350 352 350 350 351 353 354 354 354 354 353 354 353 351 348 348 348 349 350 349 348 349 347 345 345 347 347 347 346 345 346 347 345 344 347 347 343 343
320 319 321 319 320 321 320 320 321 322 323 324 326 326 325 324 324 326 328 326 328 338 350 352 351 351 351 351 351 351 353 354 353 354 354 354 355 355 352 349 348 348 347 348 349 348 348 348 346 345 348 349 349 349 348 348 349 348 346 347 348 345 345
317 319 323 323 323 323 321 320 319 321 322 320 322 323 323 324 325 326 327 326 331 343 349 350 352 351 351 353 353 354 354 353 353 354 354 355 355 355 353 351 348 347 346 347 347 348 349 349 347 346 348 349 348 349 349 347 346 347 347 348 347 344 344
319 321 324 323 324 324 324 323 322 323 323 319 318 319 321 323 324 325 325 325 334 345 346 347 352 351 352 354 353 353 354 353 352 353 354 355 355 355 354 352 350 348 347 346 346 347 349 349 347 345 347 349 348 350 350 345 341 343 347 349 345 341 343
322 322 323 323 324 324 324 323 324 324 324 322 321 321 322 323 321 324 325 324 333 346 348 349 351 351 351 351 351 352 353 353 354 354 354 355 354 355 355 353 352 350 347 347 348 348 348 348 348 347 348 347 349 351 349 344 339 340 345 347 343 341 342
319 319 320 321 322 322 323 324 324 326 326 326 325 324 326 324 321 324 324 322 332 346 348 348 349 349 350 350 350 352 352 353 354 353 354 354 353 354 354 352 350 349 346 346 347 347 345 344 345 347 348 347 347 347 345 341 340 341 343 344 341 341 342
317 318 318 319 320 322 323 324 325 326 326 327 325 323 323 322 322 326 323 322 335 348 347 345 347 346 347 349 350 351 351 351 352 353 353 353 352 352 352 352 351 349 347 346 347 346 346 344 343 345 345 344 344 343 341 340 341 341 342 342 342 342 342
318 320 321 321 322 322 321 323 326 326 326 329 327 322 321 322 323 325 326 327 336 345 347 346 347 346 345 347 349 349 350 350 350 351 351 351 352 351 351 352 351 351 349 348 347 346 346 347 345 344 343 343 343 342 341 341 341 341 342 342 341 341 342
321 322 322 322 324 323 322 323 325 326 327 329 327 323 324 327 323 322 332 336 332 337 347 347 346 347 345 346 349 348 348 348 349 349 349 349 351 350 351 351 351 352 352 351 349 347 347 346 344 344 344 344 344 344 344 342 341 341 342 342 343 342 342
321 322 321 322 323 323 324 324 324 326 328 328 327 325 329 333 328 326 336 341 334 335 346 346 346 348 345 346 348 347 346 347 347 348 348 349 350 350 350 351 351 352 353 352 352 351 349 346 345 347 348 346 344 344 344 343 342 341 342 342 343 343 343
321 322 322 322 322 322 323 324 325 326 328 329 329 329 332 335 335 334 337 341 341 342 345 346 346 347 345 346 346 345 346 347 347 348 348 349 350 350 350 350 351 352 352 352 352 352 351 349 349 350 351 349 346 345 344 342 341 340 341 342 343 343 344
320 321 322 322 321 322 322 323 324 325 327 329 329 332 333 332 336 339 339 340 344 346 346 347 346 344 345 345 345 345 346 346 347 348 349 349 349 349 349 349 350 350 350 351 351 351 351 351 351 351 350 350 349 347 345 343 341 340 341 342 342 342 342
317 320 321 321 321 321 320 322 326 326 325 327 329 333 335 334 336 339 336 336 341 346 346 346 344 344 345 345 346 346 346 346 347 347 348 349 349 348 347 347 348 348 348 349 350 350 350 351 351 350 350 350 349 347 346 344 342 341 341 341 341 341 341
316 318 321 320 320 319 318 323 328 329 328 329 330 332 336 337 338 336 334 336 342 345 345 342 343 344 344 345 346 346 346 346 347 346 347 348 347 346 346 346 346 346 346 347 347 348 349 349 349 349 349 349 349 348 347 347 345 343 343 343 342 342 340
316 318 320 320 318 318 320 325 329 330 331 331 331 332 333 336 337 336 337 339 341 342 342 341 342 343 343 345 345 345 346 346 346 347 347 347 346 345 345 345 344 344 344 344 345 346 347 347 347 347 348 348 349 349 349 349 349 348 348 348 347 345 344
316 318 318 317 317 319 324 326 325 327 330 330 331 334 335 335 336 336 337 339 340 341 342 341 341 342 343 344 344 345 345 345 345 346 345 345 344 344 344 343 342 343 343 344 344 344 344 345 345 345 346 347 347 348 348 349 349 350 350 349 349 348 348
317 316 316 317 320 323 325 325 324 326 327 327 330 334 334 334 334 336 337 339 341 343 342 341 341 343 343 343 343 343 343 343 343 343 343 343 343 342 343 342 341 343 343 343 343 343 343 343 343 343 344 344 345 347 347 347 348 349 350 350 349 350 349
318 315 315 319 322 323 325 326 325 325 326 326 327 331 333 331 332 336 338 339 340 341 341 341 341 341 341 341 341 341 341 341 341 341 342 343 341 341 341 340 341 341 341 341 342 342 342 342 342 342 342 342 343 345 345 346 347 347 348 347 347 348 348
319 316 315 317 317 321 325 326 324 324 325 325 326 330 332 328 328 333 336 337 339 340 340 341 340 340 340 341 340 339 338 338 339 340 342 341 340 339 339 340 340 340 339 340 340 341 341 341 341 341 341 341 342 343 343 344 344 345 345 345 344 345 346
318 317 316 314 316 322 326 324 324 325 325 326 327 328 329 327 326 329 332 336 339 339 339 339 339 339 340 341 340 338 337 337 339 340 340 339 338 338 338 339 338 338 338 338 338 339 339 339 340 340 340 340 340 340 340 341 341 341 342 343 342 343 343
317 317 316 316 320 325 325 323 324 325 324 326 327 327 327 327 326 327 330 334 337 339 339 338 338 339 341 341 339 337 336 337 338 338 338 338 337 337 337 337 336 336 335 335 336 336 337 337 337 338 338 339 338 338 338 338 339 340 340 340 340 339 339
316 315 315 316 321 325 324 323 325 325 324 326 326 326 326 326 326 327 329 331 335 337 338 337 338 339 340 339 337 336 336 337 336 337 337 337 336 336 335 334 334 333 333 333 333 334 334 334 334 334 335 335 335 336 336 337 339 339 339 338 336 334 334
317 317 315 315 321 325 324 324 326 325 324 326 325 325 326 326 327 328 329 331 334 337 337 337 338 339 338 336 335 335 335 335 335 335 335 335 335 334 332 332 332 331 331 332 331 331 331 331 331 330 329 329 331 334 335 336 337 337 336 334 329 326 328
318 318 316 315 320 324 324 324 326 324 324 324 324 325 326 326 328 329 330 332 334 335 336 337 338 338 336 335 334 334 334 334 334 334 334 333 332 330 329 329 330 330 329 329 329 330 330 330 330 327 324 324 328 330 330 332 333 333 331 327 322 321 326
319 320 321 320 322 324 324 324 325 324 323 323 324 325 327 328 329 329 330 333 334 335 336 336 336 337 335 334 334 335 334 334 333 333 332 332 330 328 328 329 330 329 329 329 329 329 329 328 327 325 323 323 324 325 325 326 328 328 327 324 321 322 326
322 323 325 324 324 324 324 323 324 324 323 323 324 325 327 328 328 329 330 331 332 334 335 335 335 335 334 333 333 333 332 332 331 331 331 331 330 329 329 329 329 329 329 329 328 328 328 327 327 325 324 323 322 322 322 322 323 326 328 328 327 327 328
322 323 324 324 324 324 324 323 323 323 323 323 324 325 326 327 327 328 329 330 331 332 333 334 333 333 332 332 332 331 330 330 329 330 331 330 329 329 329 328 328 327 327 327 326 326 326 326 326 326 324 323 322 324 325 325 326 328 329 329 329 329 329
322 322 324 325 324 324 324 323 323 322 323 323 324 323 324 325 326 327 328 328 329 330 332 332 332 331 330 330 330 329 328 328 328 328 329 328 327 327 327 326 324 323 322 323 323 322 321 321 323 324 324 322 321 324 326 327 327 327 328 327 327 327 327
322 323 324 324 323 323 323 323 323 323 322 323 323 323 322 324 325 326 327 327 328 329 330 331 330 330 330 329 329 328 328 327 328 328 327 325 324 324 325 324 322 320 318 319 318 317 316 317 318 319 320 321 321 323 326 327 326 326 327 326 326 326 326
321 322 323 324 323 323 323 323 322 322 322 323 323 323 322 322 323 324 326 326 326 327 328 329 329 328 328 328 328 327 326 326 327 327 326 325 323 322 323 322 320 317 315 314 314 314 314 315 316 316 318 321 322 323 324 325 325 325 326 326 326 326 326
319 321 323 323 322 323 323 322 321 321 321 322 323 323 323 322 322 323 324 325 325 326 326 327 327 327 325 325 326 326 325 324 325 325 324 323 322 321 320 318 316 315 313 312 312 311 312 315 317 319 320 322 323 323 323 323 324 324 324 325 325 325 325
320 322 322 322 321 322 322 321 321 321 321 321 322 322 323 322 321 322 323 324 325 325 325 325 326 326 324 324 325 325 324 323 324 324 323 321 321 321 319 317 317 316 314 313 313 312 313 317 319 320 321 321 322 322 323 323 323 323 323 324 324 324 324
321 321 321 320 320 321 320 319 320 320 320 320 321 321 322 322 322 321 322 323 323 324 325 324 325 325 325 324 323 323 323 322 324 324 322 321 321 321 319 319 319 316 313 314 315 316 317 318 318 319 319 320 320 321 322 322 323 323 323 323 323 323 323
320 321 321 320 320 320 320 319 320 320 319 320 320 320 321 321 320 320 321 322 322 323 323 324 324 325 325 324 323 323 323 323 323 324 323 321 321 320 320 319 319 316 314 313 314 316 317 318 317 317 318 318 319 320 321 321 322 322 322 322 322 322 322
Wind_Speed
11 17 16 13 10 7 7 9 11 8 7 8 6 6 5 5 7 5 5 5 3 4 6 7 8 8 9 11 13 15 20 23 23 21 21 21 21 21 22 23 23 23 22 22 22 21 20 20 20 21 22 22 22 20 19 20 19 18 18 17 16 15 14
11 12 14 16 15 10 6 8 10 7 5 7 5 5 6 6 7 6 7 7 7 6 5 6 10 10 10 12 13 15 20 24 25 25 25 25 24 24 24 24 23 22 22 22 21 20 20 20 21 23 23 22 21 21 20 20 20 19 18 17 17 16 15
10 8 9 12 15 14 8 6 9 8 7 7 7 6 7 8 8 7 7 9 9 8 5 7 11 11 11 13 14 15 18 22 24 26 27 27 26 24 23 24 23 21 22 22 22 20 20 21 22 23 23 22 22 22 21 20 20 20 18 18 18 16 15
8 9 8 8 11 13 8 7 8 8 6 7 8 8 7 7 8 7 8 9 8 6 3 6 10 11 11 13 14 14 17 21 22 22 24 25 25 24 25 27 25 24 25 23 21 21 21 21 22 23 22 22 21 21 20 20 19 19 19 18 18 17 16
7 8 10 9 8 12 11 7 8 9 7 7 7 8 9 8 7 7 7 8 5 1 2 3 7 8 9 10 10 11 15 18 18 18 20 22 23 24 26 27 26 27 27 24 22 21 21 21 22 22 21 21 20 19 20 20 19 19 19 19 19 18 16
8 7 7 6 4 7 12 10 9 9 8 8 7 8 10 8 8 6 6 7 2 3 2 2 6 6 6 8 8 10 13 16 16 16 18 20 21 22 24 25 25 25 25 23 22 21 20 20 22 22 20 19 19 19 20 22 21 20 18 18 18 17 16
2 4 4 2 5 5 9 9 10 10 9 10 9 9 8 8 9 8 7 7 1 4 1 2 5 5 6 6 7 8 11 13 14 15 16 18 19 19 21 22 21 21 21 20 20 20 19 20 22 23 20 19 19 19 20 23 23 21 19 19 18 16 16
1 4 4 3 2 6 9 9 10 8 9 11 9 9 8 8 10 9 7 8 3 5 1 2 5 6 7 7 8 10 10 9 10 12 14 16 18 18 20 22 22 23 22 19 18 20 21 21 21 20 20 20 20 20 22 23 23 22 21 21 20 17 15
5 6 7 6 7 9 8 7 6 5 9 10 8 7 6 6 10 11 9 9 3 5 3 3 5 7 8 9 10 11 11 10 10 11 11 13 16 16 18 22 26 26 26 24 22 22 23 24 22 19 19 21 21 22 24 25 23 23 23 23 21 18 16
7 5 5 4 6 7 5 3 2 4 9 11 9 7 6 7 9 10 10 8 2 6 6 6 7 8 8 10 11 11 12 12 12 12 12 13 15 15 15 17 20 23 26 27 27 25 24 25 24 22 22 22 21 22 24 24 23 24 25 25 23 20 18
2 1 3 3 0 4 5 4 3 4 6 9 9 9 9 8 7 8 9 8 3 6 9 9 9 10 9 10 11 10 11 12 11 11 13 14 14 15 16 15 16 18 21 23 26 27 26 24 23 24 24 21 19 19 20 21 21 23 25 26 25 23 20
3 4 5 5 2 2 3 3 3 3 4 7 10 10 7 5 8 8 5 6 8 7 9 11 11 10 10 10 10 9 10 12 11 11 12 13 14 15 16 17 17 17 17 18 21 23 24 25 24 25 25 24 21 20 20 21 21 22 24 26 26 25 23
5 4 4 3 2 2 2 2 2 2 4 5 8 9 3 3 6 5 1 5 10 7 8 11 10 10 10 10 10 10 10 11 12 12 12 12 13 14 15 17 17 16 16 16 17 17 18 22 23 22 23 27 29 28 25 24 23 22 23 25 26 26 25
4 4 2 2 2 2 2 2 3 1 3 2 3 4 0 1 2 3 2 6 6 3 4 9 9 9 10 11 11 11 11 11 11 12 12 12 12 13 14 15 15 14 14 14 14 14 15 17 17 16 16 21 27 30 29 27 25 24 23 24 24 25 25
3 2 1 2 3 2 2 2 4 2 2 1 0 0 1 1 1 3 2 5 3 2 5 9 9 9 10 12 12 12 12 12 12 12 12 13 12 12 12 11 11 11 12 13 14 14 15 16 16 16 16 16 18 21 23 24 25 25 24 24 24 25 25
6 2 1 1 3 4 3 3 7 6 2 1 3 3 4 4 2 2 2 3 1 3 6 8 8 8 10 11 12 12 12 12 13 12 12 12 12 12 11 10 10 11 12 14 15 16 17 19 19 19 19 18 16 17 19 21 24 25 23 24 26 26 26
7 6 4 3 4 6 4 3 8 9 5 4 3 3 5 5 4 3 2 1 3 1 4 5 6 8 9 10 11 11 12 13 13 12 12 12 12 11 10 10 10 11 11 12 13 15 17 17 18 18 19 19 18 18 19 20 23 24 23 24 26 26 27
7 6 5 7 8 7 2 4 7 8 7 8 6 4 7 6 4 3 2 2 2 2 5 5 6 8 9 9 10 10 11 12 12 12 13 12 12 12 11 11 10 11 11 11 11 12 12 11 11 11 12 13 15 17 19 20 21 20 20 20 22 23 24
4 3 5 10 9 4 3 5 8 8 6 8 7 3 6 8 5 4 4 3 2 3 5 5 7 9 9 9 10 9 10 11 11 13 12 11 11 12 11 11 11 12 12 12 12 11 10 9 7 6 6 8 12 16 19 21 21 21 21 22 23 23 22
3 4 7 8 3 4 4 3 9 10 7 9 7 0 5 11 9 6 6 4 2 2 5 6 7 9 10 9 8 8 9 9 9 11 11 12 12 13 12 11 12 13 12 11 11 10 9 10 9 7 6 6 7 12 15 18 20 22 24 25 25 23 22
3 6 6 4 5 4 3 4 8 9 7 8 7 1 5 12 12 9 6 4 2 1 4 7 9 11 10 7 7 8 8 7 7 9 12 13 12 11 11 11 11 11 9 7 7 7 8 9 9 7 6 5 4 5 8 11 14 18 21 21 21 21 21
2 6 6 5 7 5 3 7 8 9 7 5 5 3 2 10 16 15 9 5 2 1 5 9 11 12 9 7 9 11 11 10 10 10 12 13 11 11 12 12 12 10 8 8 8 9 9 11 11 10 7 7 8 10 10 9 11 14 15 15 15 15 15
3 5 7 6 5 1 6 9 10 11 9 5 4 5 2 9 19 20 15 8 2 3 6 9 11 11 8 7 10 13 13 12 12 12 13 13 12 12 13 13 13 13 12 13 14 14 14 14 13 12 12 12 14 16 16 15 14 14 14 15 15 14 13
1 3 6 4 1 4 8 12 12 12 10 5 5 6 1 11 19 20 17 12 5 4 7 9 11 10 6 4 11 15 14 13 13 13 14 14 14 15 14 14 14 15 15 16 17 16 17 16 14 13 14 15 17 18 18 16 16 17 18 17 17 16 16
1 2 5 3 4 5 10 13 13 14 9 3 3 2 5 14 19 18 17 15 9 6 8 10 10 8 4 4 14 18 15 16 15 14 14 15 14 14 14 15 16 16 16 17 16 16 16 15 14 13 14 15 16 17 17 17 17 19 19 19 19 19 19
1 1 4 3 4 5 13 14 12 14 9 3 1 8 11 14 16 15 15 15 11 8 9 10 9 7 3 9 17 18 16 17 16 14 17 19 16 14 15 15 16 16 16 16 16 15 14 12 12 13 14 16 16 16 18 18 18 19 19 18 15 15 16
3 3 3 3 2 6 14 12 7 10 8 2 6 12 13 13 13 14 13 11 9 9 9 10 9 6 6 10 14 14 14 14 13 12 15 17 17 17 17 15 14 15 16 16 15 14 13 12 12 11 12 15 16 16 18 18 16 16 17 16 13 13 16
3 4 1 1 2 6 12 9 5 6 6 5 7 10 11 12 13 13 12 9 7 9 9 10 9 6 8 10 11 10 9 8 8 11 13 13 16 18 17 15 13 13 14 15 14 12 11 12 13 12 12 14 15 16 17 18 15 14 15 15 14 15 17
3 3 3 4 4 5 8 7 6 5 5 5 7 8 9 12 12 12 12 10 8 10 9 6 5 7 12 14 13 12 9 5 6 10 11 12 14 17 17 16 14 12 12 13 13 11 9 9 11 11 11 12 13 15 16 17 16 16 17 17 17 18 17
3 3 3 4 4 5 6 6 5 6 6 7 8 8 9 11 12 12 12 10 8 8 5 3 5 10 16 16 13 13 13 9 8 10 12 12 13 15 18 19 16 13 12 12 11 10 9 8 8 8 9 10 12 12 13 14 14 15 16 18 18 18 17
2 1 3 4 3 5 6 6 5 7 8 8 9 9 10 11 11 11 11 9 7 6 3 6 8 12 16 16 13 14 16 14 10 10 12 13 12 14 16 17 15 12 10 10 10 9 9 8 7 7 8 9 10 10 9 10 11 11 13 16 17 16 15
2 1 4 3 3 4 5 6 7 8 9 10 10 10 10 10 10 10 10 9 8 5 1 6 10 12 14 14 13 12 14 16 15 12 11 12 13 14 14 12 11 10 9 8 7 6 6 6 6 7 7 8 9 9 9 9 10 9 10 13 14 14 14
2 3 3 2 3 4 2 5 7 8 9 10 11 10 11 11 11 10 10 9 8 6 2 4 8 12 14 17 19 16 15 17 20 20 18 15 13 13 13 12 9 8 6 4 3 3 4 5 5 5 7 6 6 7 6 8 9 9 10 11 12 12 12
3 2 3 3 2 3 1 5 7 8 9 10 10 11 12 12 12 12 10 8 7 5 2 1 5 9 11 16 22 21 17 18 20 21 20 19 17 14 12 11 9 6 4 3 2 2 3 5 6 6 6 5 5 5 5 6 8 9 10 11 11 11 10
2 3 4 4 4 4 4 6 8 8 8 9 10 11 11 12 12 12 11 9 8 5 2 1 2 6 9 14 20 23 20 19 20 19 18 17 16 15 13 8 4 5 5 5 3 2 3 5 6 6 5 5 5 5 5 5 7 8 9 10 10 10 10
2 2 2 2 4 6 6 7 8 7 7 8 9 10 10 11 11 11 10 9 8 6 3 1 1 3 7 10 16 21 21 19 20 20 18 16 15 13 10 7 4 1 4 4 3 2 3 4 5 6 6 5 5 4 5 5 6 7 8 9 9 9 10
3 2 2 3 5 6 6 7 5 5 7 8 8 9 10 10 10 10 9 8 7 6 4 1 1 3 5 8 11 15 18 19 21 22 20 17 15 14 13 12 12 7 2 3 2 1 2 2 4 4 4 5 4 5 6 7 7 8 8 9 10 10 10
Wind_Direction
190 198 206 206 204 201 192 206 219 221 235 243 242 236 220 235 256 221 188 229 219 157 171 161 152 163 172 173 172 172 176 178 175 173 181 186 186 189 192 193 195 196 201 210 210 208 208 208 208 204 205 212 212 207 204 199 197 197 196 194 193 194 197
191 204 207 200 213 226 200 205 210 195 227 249 234 226 220 223 245 230 198 216 224 211 191 167 172 173 169 176 179 172 171 176 178 181 189 193 192 195 197 198 199 198 201 207 208 207 208 207 207 207 211 214 213 210 206 201 198 198 197 197 197 197 198
170 183 212 199 207 225 243 246 215 192 209 219 203 218 227 218 230 232 208 209 227 229 193 172 187 180 170 175 177 176 175 179 183 186 190 195 193 192 196 203 203 198 202 209 208 206 207 208 209 209 211 214 214 212 207 204 202 201 200 201 203 202 201
158 171 206 203 192 207 241 268 224 201 219 224 208 219 231 228 232 231 217 213 222 230 176 168 182 173 167 171 175 180 180 179 184 186 187 189 186 183 192 205 209 206 209 211 209 208 207 208 210 208 209 211 211 209 207 204 203 205 205 206 208 207 203
179 190 198 210 199 191 203 228 215 201 217 230 221 224 229 237 240 231 229 226 208 113 42 123 150 153 158 165 171 180 180 178 181 181 180 179 179 182 190 201 207 210 214 213 209 210 207 207 211 208 205 208 206 203 204 203 202 205 206 207 211 213 209
200 188 181 228 264 204 197 207 215 210 213 220 221 221 220 230 242 235 240 243 191 74 23 100 125 134 144 155 168 175 175 177 177 176 178 179 180 183 185 192 200 204 209 210 206 207 203 204 212 209 203 205 205 201 205 208 207 206 204 205 213 216 214
205 100 127 267 312 249 215 213 220 216 211 217 224 223 213 217 233 235 247 253 166 87 89 137 123 127 129 145 165 167 167 172 174 175 177 179 181 182 179 183 189 193 198 202 202 202 199 202 213 213 205 204 203 200 207 215 215 211 205 206 214 218 216
157 95 137 184 221 228 226 220 222 227 222 219 227 240 234 224 224 221 236 244 190 104 129 154 130 132 139 156 167 169 170 165 163 172 175 175 179 180 176 177 181 186 193 196 197 198 198 203 210 210 206 208 205 201 210 219 220 216 213 213 217 218 216
188 168 169 175 188 208 221 218 220 255 254 239 239 254 256 240 230 221 229 239 187 118 150 164 146 150 158 168 170 169 171 166 163 173 177 178 184 184 179 181 187 193 199 202 203 202 203 207 209 204 204 210 211 212 219 224 222 219 221 223 224 220 215
210 193 187 180 184 193 198 196 199 241 247 242 242 243 235 234 232 225 232 244 148 130 169 176 165 171 170 169 171 169 169 169 169 172 174 180 189 191 186 185 188 193 199 203 207 212 213 214 214 213 214 216 219 225 230 231 227 224 224 226 227 223 218
257 45 59 45 17 195 182 170 175 198 223 235 241 240 238 239 237 233 234 239 205 165 179 183 176 180 181 175 174 174 169 167 166 167 172 179 188 193 193 192 192 194 197 200 205 212 217 216 214 216 218 218 220 229 236 237 233 228 225 226 227 224 221
54 51 69 72 76 172 161 157 166 174 190 218 230 234 249 259 245 243 227 217 232 215 181 181 183 181 187 182 174 173 168 163 164 170 176 182 186 191 193 194 195 197 198 200 202 207 213 215 213 214 217 219 223 232 239 241 237 230 228 228 227 226 224
76 63 91 103 109 114 111 121 125 171 190 208 228 233 268 299 251 260 244 210 242 241 176 172 177 176 182 180 169 169 173 171 170 173 180 185 185 187 190 193 195 196 196 198 199 201 208 212 214 216 220 223 228 234 237 238 234 229 227 227 228 228 226
95 71 103 166 191 150 138 107 72 109 195 194 225 220 164 325 264 324 308 221 235 263 153 154 159 167 173 172 171 175 180 180 175 172 178 181 177 176 180 186 190 191 192 195 196 198 203 207 210 214 218 221 225 229 232 233 230 226 224 225 227 228 227
163 79 62 213 227 216 169 106 52 21 207 169 39 101 29 300 305 10 302 216 189 75 111 131 144 162 166 168 175 178 177 176 172 170 175 173 167 165 163 164 169 171 177 185 187 190 196 201 204 207 210 212 213 218 223 226 227 225 223 224 227 229 228
201 182 283 238 243 250 201 106 31 3 333 16 26 40 17 345 332 331 263 221 146 85 110 127 148 170 172 173 177 176 172 172 171 170 169 160 153 155 153 147 146 148 159 174 179 185 193 197 202 206 208 208 208 211 217 222 225 225 224 225 227 230 230
214 208 261 269 246 246 217 90 20 4 7 4 11 68 41 6 335 304 278 354 20 90 138 146 169 181 181 178 175 174 173 173 172 172 168 158 152 156 154 145 140 142 151 166 178 190 198 201 207 213 214 215 217 218 221 225 228 228 227 226 226 227 230
230 218 257 259 237 235 226 48 15 1 8 1 353 37 43 27 4 345 335 4 2 206 179 177 190 193 189 180 175 175 174 173 173 175 171 159 156 164 157 140 132 134 139 145 158 177 187 188 198 208 210 215 220 221 220 223 224 224 222 221 222 225 228
260 232 240 245 235 207 111 56 18 359 356 355 346 14 44 32 20 359 338 342 343 233 201 192 196 195 188 179 175 177 182 180 180 179 166 147 151 165 156 140 140 143 143 145 147 150 150 145 146 156 171 196 214 219 221 222 222 220 220 220 221 223 224
265 241 232 234 213 113 116 63 17 8 357 354 344 32 55 23 5 352 348 356 357 243 201 185 185 181 177 177 175 180 189 188 187 183 162 144 153 165 157 144 145 147 146 147 148 146 144 141 134 136 152 175 204 216 220 224 227 227 227 226 225 223 220
259 255 244 208 175 143 96 34 18 11 357 349 337 299 59 26 6 353 351 358 357 232 177 164 163 161 164 177 181 181 183 176 178 178 157 146 152 157 152 145 141 145 149 151 158 164 161 153 141 141 155 149 149 182 199 211 220 224 222 220 219 219 217
259 262 251 222 211 197 55 29 15 4 350 335 318 280 83 30 7 351 342 346 354 184 156 156 164 167 178 198 187 178 176 168 166 162 143 138 144 146 145 140 132 135 142 147 156 159 154 152 148 149 153 139 122 124 131 147 174 192 196 192 190 192 194
252 261 248 244 238 195 30 7 355 354 348 326 282 242 168 28 2 345 334 333 321 189 171 174 182 185 196 202 176 167 168 161 153 145 132 129 136 138 137 135 131 129 132 135 140 140 137 138 139 144 150 147 138 130 123 124 132 140 149 152 151 147 143
246 268 256 255 154 74 17 351 343 346 346 326 255 223 128 9 350 336 328 321 295 202 191 197 200 205 228 206 157 153 158 152 136 129 131 134 137 135 133 133 132 130 130 129 128 128 128 125 125 133 142 146 144 137 129 126 123 121 124 129 130 126 122
195 239 256 250 110 63 357 343 342 339 328 279 240 258 344 340 331 325 319 309 292 237 212 214 215 226 263 116 128 133 142 144 134 130 136 136 133 135 137 135 133 130 129 129 129 128 126 123 124 131 136 139 140 136 134 133 127 123 125 124 121 118 115
287 248 268 254 127 48 348 335 344 346 324 237 305 336 324 319 320 321 314 303 290 261 229 222 223 224 193 135 136 142 149 151 148 148 145 138 134 138 139 134 133 135 135 134 132 127 123 123 130 137 139 138 137 136 137 136 130 127 130 128 121 118 120
282 234 256 266 150 40 358 342 359 12 2 343 335 326 318 322 327 326 320 307 289 276 252 230 222 211 172 146 144 151 158 159 165 170 158 149 150 151 144 138 139 139 136 134 129 126 126 129 136 144 144 140 141 144 142 139 135 133 136 135 126 119 125
291 257 259 348 37 33 14 11 40 36 12 346 330 321 321 332 337 334 331 320 304 305 284 240 215 180 145 133 128 134 139 134 147 158 154 156 162 154 141 139 141 137 134 133 128 126 131 134 139 148 149 143 145 146 142 138 135 133 135 137 133 130 132
0 358 45 68 61 39 33 45 59 39 6 347 337 331 332 338 344 345 337 325 320 324 307 254 202 168 160 151 140 145 150 134 138 149 147 154 160 152 144 145 143 136 136 136 130 127 133 138 140 145 150 151 150 145 141 138 136 135 137 138 138 138 139
90 63 70 91 83 56 45 55 59 39 21 7 353 347 349 350 351 352 346 336 330 321 297 210 164 170 171 164 155 160 169 171 160 152 153 160 160 152 151 155 153 145 140 135 130 129 132 132 132 136 145 154 154 146 140 138 137 139 143 146 146 144 141
189 151 85 95 100 68 48 42 44 33 22 16 7 359 357 354 355 359 358 354 345 324 264 180 164 170 174 173 171 173 177 177 164 143 144 153 154 150 150 153 156 157 150 137 133 138 140 134 129 129 137 150 155 147 139 142 146 148 151 154 155 151 145
243 118 88 103 143 105 55 32 29 23 13 12 11 6 3 1 2 7 9 7 5 351 280 170 162 169 176 180 181 179 181 191 197 192 171 150 134 128 128 129 137 146 146 140 139 148 153 148 140 136 139 146 150 144 140 148 154 155 157 158 156 151 147
226 151 106 107 185 174 95 24 15 8 1 1 2 4 8 9 10 13 13 15 20 18 25 154 164 176 185 195 201 196 183 185 196 200 193 177 153 128 108 95 102 120 127 129 134 138 137 133 129 135 136 133 132 134 139 149 156 160 162 158 152 150 149
239 137 76 30 290 233 345 6 353 346 348 350 352 357 3 7 10 14 13 13 20 25 34 170 199 201 201 209 214 208 189 178 184 189 186 181 175 160 130 101 87 81 69 63 72 118 135 119 103 103 110 109 115 126 131 139 150 160 163 159 159 160 159
339 47 47 15 322 302 333 343 334 333 339 341 342 346 353 359 5 9 13 16 15 13 13 333 240 221 217 220 218 211 199 185 184 188 184 175 170 166 154 134 87 44 42 43 37 54 103 106 98 97 102 105 110 117 123 133 147 154 157 160 162 163 164
350 30 29 349 304 297 311 321 322 327 332 333 334 332 335 347 356 360 7 15 18 15 4 333 275 212 212 214 211 210 208 201 196 197 192 177 168 168 172 193 233 304 49 44 31 55 83 94 100 106 109 107 106 113 124 132 142 149 153 158 163 169 175
300 321 329 303 286 290 302 305 307 321 327 330 332 325 323 331 343 353 359 4 13 21 20 336 245 205 195 196 202 208 210 207 203 199 191 181 184 197 207 220 233 241 282 351 356 50 104 120 127 128 124 118 128 146 147 147 156 164 163 161 167 177 180